This demonstration page uses our WeatherBlox Daily Observations layout. Learn more.

Left ArrowRight Arrow

34.74481, -87.66753

Hourly Observations for May 26, 2022

Temp ( °F °C ) Dew Point ( °F °C ) Humidity (%) Winds ( mph kmh ) Pressure ( in mb ) Visibility ( mi km ) Precip ( " mm )
12:53 am 00:53 Mostly Clear 71 21.7 67 19.4 87 87 S 12 19 29.90 1013 10 16 0.00 0.00
1:53 am 01:53 Mostly Cloudy 70 21.1 67 19.4 90 90 S 12 19 29.90 1013 10 16 0.00 0.00
2:42 am 02:42 Cloudy 70 21.1 67 19.4 90 90 S 10 17 29.91 1013 10 16 0.05 1.27
2:53 am 02:53 Cloudy 70 21.1 67 19.4 90 90 S 9 15 29.90 1012 10 16 0.05 1.27
3:18 am 03:18 Cloudy 70 21.1 67 19.4 90 90 S 8 13 29.90 1012 10 16 0.00 0.00
3:41 am 03:41 Cloudy 70 21.1 67 19.4 90 90 S 7 11 29.89 1012 10 16 0.00 0.00
3:53 am 03:53 Cloudy 70 21.1 66 18.9 87 87 SSE 10 17 29.88 1012 10 16 0.00 0.00
4:05 am 04:05 Cloudy 70 21.1 66 18.9 87 87 SSE 10 17 29.89 1012 10 16 0.00 0.00
4:53 am 04:53 Cloudy with Light Rain 69 20.6 66 18.9 90 90 SSE 14 22 29.88 1012 7 11 0.02 0.51
5:53 am 05:53 Cloudy 69 20.6 66 18.9 90 90 S 10 17 29.89 1012 10 16 0.02 0.51
6:53 am 06:53 Cloudy 69 20.6 66 18.9 90 90 S 10 17 29.91 1013 10 16 0.00 0.00
7:25 am 07:25 Cloudy with Light Rain 69 20.6 66 18.9 90 90 S 18 30 29.90 1012 4 6 0.02 0.51
7:53 am 07:53 Cloudy with Light Rain 67 19.4 64 17.8 91 91 SSE 8 13 29.88 1012 8 13 0.03 0.76
8:53 am 08:53 Cloudy 70 21.1 65 18.3 84 84 S 10 17 29.91 1013 10 16 0.01 0.25
9:37 am 09:37 Cloudy 72 22.2 68 20 87 87 S 9 15 29.88 1012 10 16 0.00 0.00
9:53 am 09:53 Cloudy with Light Rain 72 22.2 68 20 87 87 S 7 11 29.87 1012 9 14 0.01 0.25
10:25 am 10:25 Cloudy with Light Rain 72 22.2 68 20 87 87 S 9 15 29.87 1012 10 16 0.00 0.00
10:49 am 10:49 Mostly Cloudy 72 22 68 20 88 88 S 6 9 29.86 1011 10 16 0.00 0.00
10:53 am 10:53 Cloudy 73 22.8 68 20 84 84 S 7 11 29.87 1011 10 16 0.00 0.00
11:23 am 11:23 Mostly Cloudy 73 22.8 67 19.4 81 81 S 9 15 29.86 1011 10 16 0.00 0.00
11:50 am 11:50 Mostly Cloudy 75 24 70 21 83 83 S 13 20 29.86 1011 10 16 0.00 0.00
11:53 am 11:53 Mostly Cloudy 75 23.9 68 20 79 79 S 9 15 29.87 1011 10 16 0.00 0.00
12:53 pm 12:53 Partly Cloudy 80 26.7 64 17.8 58 58 SSW 17 28 29.85 1011 10 16 0.00 0.00
1:53 pm 13:53 Mostly Sunny 80 26.7 58 14.4 47 47 WSW 23 37 29.86 1011 10 16 0.00 0.00
2:53 pm 14:53 Sunny 81 27.2 56 13.3 42 42 WSW 20 31 29.83 1010 10 16 0.00 0.00
3:53 pm 15:53 Sunny 80 26.7 53 11.7 39 39 W 25 41 29.83 1010 10 16 0.00 0.00
4:53 pm 16:53 Mostly Sunny 79 26.1 54 12.2 42 42 WSW 16 26 29.83 1010 10 16 0.00 0.00
5:53 pm 17:53 Mostly Sunny 78 25.6 54 12.2 43 43 SW 13 20 29.83 1010 10 16 0.00 0.00
6:53 pm 18:53 Partly Cloudy 75 23.9 54 12.2 48 48 WSW 8 13 29.84 1011 10 16 0.00 0.00
7:53 pm 19:53 Partly Cloudy 70 21.1 58 14.4 66 66 S 3 6 29.84 1010 10 16 0.00 0.00
8:53 pm 20:53 Partly Cloudy 67 19.4 58 14.4 73 73 SE 6 9 29.84 1010 10 16 0.00 0.00
9:53 pm 21:53 Mostly Cloudy 69 20.6 59 15 70 70 Calm 29.85 1011 10 16 0.00 0.00
10:26 pm 22:26 Cloudy 68 20 57 13.9 68 68 WNW 15 24 29.90 1012 10 16 0.00 0.00
10:53 pm 22:53 Cloudy with Light Rain 66 18.9 59 15 78 78 WNW 10 17 29.90 1012 10 16 0.00 0.00
11:53 pm 23:53 Cloudy 65 18.3 60 15.6 84 84 W 5 7 29.87 1011 10 16 0.00 0.00

Powered by AerisWeather